EW4214 Weather Reports


Display with metric or nautical units.
time (UTC)temp
F
wind
direction
speed
MPH
gust
MPH
rain 1hr
in
rain 24hr
in
rain mn
in
humidity
%
barometer
mb
20260502211801 78 182 0.0 0.0 0.00 0.00 0.00 58 1008.0
20260502210800 78 181 0.0 1.0 0.00 0.00 0.00 58 1007.8
20260502205801 78 179 0.0 0.0 0.00 0.00 0.00 57 1007.8
20260502205244 78 184 0.0 0.0 0.00 0.00 0.00 58 1007.8
20260502203802 78 182 0.0 0.0 0.00 0.00 0.00 57 1007.8
20260502203243 78 179 0.0 0.0 0.00 0.00 0.00 57 1007.9
20260502201801 78 191 0.0 0.0 0.00 0.00 0.00 57 1007.9
20260502200800 78 171 0.0 0.0 0.00 0.00 0.00 57 1007.9
20260502195801 78 186 0.0 1.0 0.00 0.00 0.00 57 1007.9
20260502194801 78 192 0.0 1.0 0.00 0.00 0.00 57 1007.9
20260502193931 78 183 0.0 1.0 0.00 0.00 0.00 57 1007.9
20260502193456 78 182 0.0 2.0 0.00 0.00 0.00 57 1008.1
20260502192443 78 194 0.0 1.0 0.00 0.00 0.00 56 1008.2
20260502190925 78 178 0.0 0.0 0.00 0.00 0.00 57 1008.2
20260502190440 78 196 0.0 0.0 0.00 0.00 0.00 57 1008.3
20260502185925 78 180 0.0 1.0 0.00 0.00 0.00 57 1008.3
20260502183915 79 194 0.0 0.0 0.00 0.00 0.00 56 1008.4
20260502183423 78 194 0.0 0.0 0.00 0.00 0.00 56 1008.3
20260502182420 79 191 0.0 0.0 0.00 0.00 0.00 56 1008.4
20260502181413 79 189 0.0 1.0 0.00 0.00 0.00 56 1008.4
20260502163834 79 197 0.0 2.0 0.00 0.00 0.00 56 1009.1
20260502162831 79 189 1.0 7.0 0.00 0.00 0.00 56 1009.1
20260502161827 79 199 1.0 2.0 0.00 0.00 0.00 57 1009.2
20260502160822 79 189 0.0 2.0 0.00 0.00 0.00 56 1009.2
20260502152308 79 192 1.0 3.0 0.00 0.00 0.00 54 1009.1
20260502151807 79 166 1.0 3.0 0.00 0.00 0.00 54 1009.3
20260502130707 81 254 2.0 6.0 0.00 0.00 0.00 46 1007.3
20260502130509 81 203 2.0 7.0 0.00 0.00 0.00 45 1007.2
20260502123804 81 181 2.0 4.0 0.00 0.00 0.00 46 1006.8
20260502122802 82 174 0.0 4.0 0.00 0.00 0.00 44 1006.5
20260502121800 81 154 2.0 7.0 0.00 0.00 0.00 44 1006.3
20260502121723 83 140 0.0 3.0 0.00 0.00 0.00 43 1006.0
20260502120239 83 144 0.0 4.0 0.00 0.00 0.00 43 1005.8
20260502114807 84 153 0.0 3.0 0.00 0.00 0.00 41 1005.7
20260502114725 84 169 0.0 2.0 0.00 0.00 0.00 41 1005.7
20260502113241 84 163 1.0 1.0 0.00 0.00 0.00 40 1005.6
20260502112727 84 166 1.0 6.0 0.00 0.00 0.00 40 1005.6
20260502110801 85 177 0.0 3.0 0.00 0.00 0.00 39 1005.6
20260502105801 85 170 0.0 4.0 0.00 0.00 0.00 39 1005.6
20260502105246 85 175 0.0 6.0 0.00 0.00 0.00 38 1005.5
20260502103800 86 195 2.0 3.0 0.00 0.00 0.00 38 1005.3
20260502102801 87 228 0.0 3.0 0.00 0.00 0.00 37 1005.3
20260502101801 87 198 2.0 4.0 0.00 0.00 0.00 36 1005.3
20260502100801 87 200 3.0 6.0 0.00 0.00 0.00 37 1005.3
20260502090801 91 223 2.0 4.0 0.00 0.00 0.00 36 1005.1
20260502090243 91 210 1.0 4.0 0.00 0.00 0.00 36 1005.1
20260502070923 97 214 3.0 4.0 0.00 0.00 0.00 30 1006.7
20260502065915 96 228 2.0 3.0 0.00 0.00 0.00 31 1007.0
20260502064914 94 188 0.0 6.0 0.00 0.00 0.00 32 1007.2
20260502063911 95 240 1.0 2.0 0.00 0.00 0.00 32 1007.4
20260502062906 95 119 0.0 3.0 0.00 0.00 0.00 32 1007.6
20260502062429 94 202 0.0 3.0 0.00 0.00 0.00 32 1007.7
20260502060858 94 126 1.0 3.0 0.00 0.00 0.00 33 1008.1
20260502055851 94 193 0.0 3.0 0.00 0.00 0.00 33 1008.3
20260502054857 95 196 0.0 3.0 0.00 0.00 0.00 32 1008.4
20260502054401 94 188 0.0 4.0 0.00 0.00 0.00 33 1008.6
20260502052847 93 228 3.0 6.0 0.00 0.00 0.00 35 1008.8
20260502051845 95 224 1.0 3.0 0.00 0.00 0.00 33 1008.8
20260502050845 94 213 1.0 4.0 0.00 0.00 0.00 33 1009.1
20260502045836 94 227 1.0 3.0 0.00 0.00 0.00 35 1009.2
20260502044830 93 210 0.0 3.0 0.00 0.00 0.00 35 1009.4
20260502043841 90 208 0.0 4.0 0.00 0.00 0.00 37 1009.6
20260502043826 91 243 2.0 4.0 0.00 0.00 0.00 36 1009.5
20260502041817 89 215 1.0 3.0 0.00 0.00 0.00 37 1009.7
20260502040815 89 209 0.0 3.0 0.00 0.00 0.00 42 1009.7
20260502035811 87 166 0.0 3.0 0.00 0.00 0.00 42 1009.8
20260502034809 87 351 1.0 3.0 0.00 0.00 0.00 43 1010.2
20260502033803 86 299 0.0 6.0 0.00 0.00 0.00 44 1010.2
20260502032759 85 191 0.0 3.0 0.00 0.00 0.00 46 1010.2
20260502032256 84 233 2.0 6.0 0.00 0.00 0.00 47 1010.3
20260502031254 83 211 1.0 4.0 0.00 0.00 0.00 48 1010.3
20260502030753 84 163 1.0 6.0 0.00 0.00 0.00 47 1010.3
20260502024746 84 186 0.0 2.0 0.00 0.00 0.00 48 1010.5
20260502023742 82 207 0.0 2.0 0.00 0.00 0.00 49 1010.6
20260502022740 82 192 0.0 2.0 0.00 0.00 0.00 49 1010.7
20260502022235 80 190 0.0 3.0 0.00 0.00 0.00 50 1010.6
20260502020732 80 154 1.0 3.0 0.00 0.00 0.00 50 1010.5
20260502020226 79 174 0.0 3.0 0.00 0.00 0.00 52 1010.5
20260502014731 79 174 0.0 2.0 0.00 0.00 0.00 52 1010.6
20260502013730 78 182 0.0 1.0 0.00 0.00 0.00 54 1010.4
20260502012730 77 174 0.0 1.0 0.00 0.00 0.00 55 1010.2
20260502011730 76 176 0.0 2.0 0.00 0.00 0.00 57 1010.3
20260502010730 75 183 0.0 2.0 0.00 0.00 0.00 57 1010.3
20260502005730 74 186 0.0 0.0 0.00 0.00 0.00 58 1010.2
20260502004731 74 187 0.0 1.0 0.00 0.00 0.00 59 1010.0
20260502003731 73 192 0.0 3.0 0.00 0.00 0.00 60 1010.0
20260502002731 73 183 1.0 2.0 0.00 0.00 0.00 59 1009.8
20260502001730 73 195 0.0 1.0 0.00 0.00 0.00 60 1009.7
20260502000735 73 184 0.0 3.0 0.00 0.00 0.00 60 1009.9
20260501235732 73 187 0.0 4.0 0.00 0.00 0.00 60 1009.7
20260501234730 73 162 2.0 2.0 0.00 0.00 0.00 62 1009.6
20260501233732 73 163 0.0 6.0 0.00 0.00 0.00 62 1009.3
20260501233233 72 189 0.0 3.0 0.00 0.00 0.00 62 1009.4
20260501231731 73 182 0.0 1.0 0.00 0.00 0.00 62 1008.9
20260501230731 73 167 0.0 1.0 0.00 0.00 0.00 62 1008.9
20260501225730 73 180 0.0 0.0 0.00 0.00 0.00 62 1008.9
20260501225248 73 173 0.0 2.0 0.00 0.00 0.00 62 1008.9
20260501223731 73 158 0.0 2.0 0.00 0.00 0.00 62 1009.0
20260501222732 73 176 0.0 0.0 0.00 0.00 0.00 63 1008.8
20260501221730 73 171 0.0 0.0 0.00 0.00 0.00 62 1008.7
20260501221710 73 182 0.0 0.0 0.00 0.00 0.00 63 1008.5
20260501215731 73 179 0.0 0.0 0.00 0.00 0.00 62 1008.4
20260501214731 73 182 0.0 0.0 0.00 0.00 0.00 62 1008.4
20260501213731 73 179 0.0 0.0 0.00 0.00 0.00 63 1008.5
20260501212730 73 184 0.0 0.0 0.00 0.00 0.00 63 1008.5